This is the latest recevied weather packets stored in our database for station/object KK6MIG-13. If no packets are shown the sender has not sent any weather packets the latest 10 day(s).
| Time | Temp. | Humidity | Pressure | Rain* | Wind** | Luminosity | Snow |
|---|---|---|---|---|---|---|---|
| 1788227225 | 15.56° C | 3% | 1011.8 hPa | 0 mm | - | 47 W/m² | - |
| 1788227165 | 15.56° C | 1% | 1011.9 hPa | 0 mm | - | 53 W/m² | - |
| 1788227105 | 16.11° C | 2% | 1011.9 hPa | 0 mm | - | 51 W/m² | - |
| 1788227046 | 16.11° C | 2% | 1011.9 hPa | 0 mm | - | 44 W/m² | - |
| 1788226985 | 16.11° C | 3% | 1011.9 hPa | 0 mm | - | 49 W/m² | - |
| 1788226925 | 16.11° C | 4% | 1011.9 hPa | 0 mm | - | 54 W/m² | - |
| 1788226865 | 16.11° C | 5% | 1011.9 hPa | 0 mm | - | 62 W/m² | - |
| 1788226805 | 16.11° C | 6% | 1011.9 hPa | 0 mm | - | 72 W/m² | - |
| 1788226739 | 16.11° C | 7% | 1011.9 hPa | 0 mm | - | 74 W/m² | - |
| 1788226679 | 16.11° C | 9% | 1012 hPa | 0 mm | - | 70 W/m² | - |
| 1788226619 | 16.11° C | 10% | 1011.9 hPa | 0 mm | - | 47 W/m² | - |
| 1788226559 | 16.11° C | 12% | 1012 hPa | 0 mm | - | 35 W/m² | - |
| 1788226499 | 16.11° C | 14% | 1011.9 hPa | 0 mm | - | 32 W/m² | - |
| 1788226437 | 16.11° C | 15% | 1012 hPa | 0 mm | - | 33 W/m² | - |
| 1788226377 | 16.11° C | 16% | 1011.9 hPa | 0 mm | - | 37 W/m² | - |
| 1788226317 | 16.11° C | 18% | 1011.9 hPa | 0 mm | - | 46 W/m² | - |
| 1788226257 | 16.11° C | 19% | 1012 hPa | 0 mm | - | 77 W/m² | - |
| 1788226197 | 16.11° C | 18% | 1012 hPa | 0 mm | - | 91 W/m² | - |
| 1788226137 | 16.11° C | 18% | 1012 hPa | 0 mm | - | 95 W/m² | - |
| 1788226077 | 16.11° C | 18% | 1012 hPa | 0 mm | - | 93 W/m² | - |
| 1788226017 | 16.11° C | 19% | 1012 hPa | 0 mm | - | 88 W/m² | - |
| 1788225957 | 16.11° C | 19% | 1012 hPa | 0 mm | - | 90 W/m² | - |
| 1788225910 | 16.11° C | 21% | 1012 hPa | 0 mm | - | 90 W/m² | - |
| 1788225837 | 16.11° C | 22% | 1012 hPa | 0 mm | - | 95 W/m² | - |
| 1788225777 | 16.11° C | 25% | 1012 hPa | 0 mm | - | 104 W/m² | - |
* Rain latest hour (hover to see other rain measurements)
** Current wind speed in m/s (hover to see current wind gust speed)